Stations météo

réclame
Mon MeteoGroup
Ritsem, Suède (2013): Température de l'air & dewpoint: 10.06.2019 02:00:00 - 16.06.2019 02:00:00 (CEST)Ritsem, Suède (2013): Vitesse du vent & gusts: 10.06.2019 02:00:00 - 16.06.2019 02:00:00 (CEST)Ritsem, Suède (2013): Direction du vent: 10.06.2019 02:00:00 - 16.06.2019 02:00:00 (CEST)Ritsem, Suède (2013): reduced air pressure: 10.06.2019 02:00:00 - 16.06.2019 02:00:00 (CEST)Ritsem, Suède (2013): visibility: 10.06.2019 02:00:00 - 16.06.2019 02:00:00 (CEST)Ritsem, Suède (2013): Quantités de précipitations: 10.06.2019 02:00:00 - 16.06.2019 02:00:00 (CEST)
Date & Time tt [°C] td [°C] ff [km/h] ff [knt] fx [km/h] fx [knt] dd ppp [hPa] vv [km] rr [mm]
16.06.2019 02:00:00 7,1 3,0 9 5 18 10 N 1017,3 50 0,0
16.06.2019 01:00:00 8,4 3,0 7 4 16 9 N 1017,0 50 0,0
16.06.2019 00:00:00 9,0 3,4 10 6 17 9 NNE 1017,0 50 0,0
15.06.2019 23:00:00 9,8 4,0 9 5 14 8 NNE 1017,0 50 0,0
15.06.2019 22:00:00 13,0 4,9 5 3 19 10 NW 1016,1 50 0,0
15.06.2019 21:00:00 14,9 5,4 11 6 23 12 NW 1015,4 50 0,0
15.06.2019 20:00:00 16,0 5,9 11 6 20 11 NW 1015,5 50 0,0
15.06.2019 19:00:00 17,0 6,5 10 5 27 15 WNW 1015,5 48 0,0
15.06.2019 18:00:00 17,2 6,4 12 7 24 13 WNW 1015,8 46 0,0
15.06.2019 17:00:00 17,6 6,2 9 5 22 12 NNW 1015,8 43 0,0
15.06.2019 16:00:00 18,2 5,1 10 5 25 13 W 1015,7 48 0,0
15.06.2019 15:00:00 17,7 4,3 13 7 28 15 WNW 1015,9 45 0,0
15.06.2019 14:00:00 19,5 4,4 9 5 - - SW 1015,4 45 0,0
15.06.2019 13:00:00 17,7 2,8 12 6 24 13 SSW 1015,7 42 0,0
15.06.2019 12:00:00 16,9 2,5 11 6 19 11 SW 1016,1 48 0,0
15.06.2019 11:00:00 14,9 1,8 6 3 10 5 S 1016,7 50 0,0
15.06.2019 10:00:00 14,1 1,0 6 3 10 5 SSW 1016,9 50 0,0
15.06.2019 09:00:00 12,9 0,9 5 3 9 5 SSW 1017,1 50 0,0
15.06.2019 08:00:00 11,2 0,9 4 2 9 5 SSW 1017,5 50 0,0
15.06.2019 07:00:00 10,9 1,7 4 2 7 4 SW 1017,7 50 0,0
15.06.2019 06:00:00 10,9 2,5 2 1 7 4 SSW 1017,7 50 0,0
15.06.2019 05:00:00 8,7 3,3 3 2 13 7 ENE 1018,0 50 0,0
15.06.2019 04:00:00 8,7 2,9 11 6 18 10 NNE 1018,0 50 0,0
15.06.2019 03:00:00 8,2 3,1 10 5 21 11 NNE 1018,1 50 0,0
15.06.2019 02:00:00 8,6 3,2 14 7 27 14 N 1017,8 50 0,0
15.06.2019 01:00:00 9,4 3,6 16 9 - - N 1017,6 50 0,0
15.06.2019 00:00:00 9,8 3,7 16 9 27 14 N 1017,1 50 0,0
14.06.2019 23:00:00 10,3 3,8 14 8 24 13 N 1017,1 50 0,0
14.06.2019 22:00:00 12,0 3,5 13 7 23 13 NNE 1016,5 50 0,0
14.06.2019 21:00:00 14,5 2,7 9 5 16 9 NE 1015,7 50 0,0
14.06.2019 20:00:00 16,2 0,7 5 3 18 10 NNW 1015,3 50 0,0
14.06.2019 19:00:00 16,2 1,5 10 5 22 12 NNE 1015,6 50 0,0
14.06.2019 18:00:00 16,9 -0,3 10 5 - - NNE 1015,6 50 0,0
14.06.2019 17:00:00 17,2 -0,1 11 6 21 12 N 1015,7 50 0,0
14.06.2019 16:00:00 17,7 0,4 9 5 24 13 ESE 1015,9 50 0,0
14.06.2019 15:00:00 17,5 1,0 9 5 17 9 SSW 1016,5 49 0,0
14.06.2019 14:00:00 16,7 1,2 11 6 18 10 SSW 1017,1 50 0,0
14.06.2019 13:00:00 16,5 -0,7 10 5 17 9 SSW 1017,8 50 0,0
14.06.2019 12:00:00 15,4 -1,7 9 5 15 8 S 1018,2 45 0,0
14.06.2019 11:00:00 14,4 -1,3 6 3 15 8 SSW 1018,6 50 0,0
14.06.2019 10:00:00 13,7 -1,9 11 6 21 12 SSE 1018,7 47 0,0
14.06.2019 09:00:00 12,7 1,1 9 5 18 10 SSE 1019,5 50 0,0
14.06.2019 08:00:00 11,3 1,5 8 4 14 8 S 1019,8 50 0,0
14.06.2019 07:00:00 11,2 1,4 8 4 14 8 SSE 1019,9 50 0,0
14.06.2019 06:00:00 9,9 1,8 3 2 14 7 SE 1020,8 50 0,0
14.06.2019 05:00:00 9,0 1,6 5 3 11 6 E 1021,3 50 0,0
14.06.2019 04:00:00 8,1 1,3 5 3 16 8 NNE 1021,9 50 0,0
14.06.2019 03:00:00 8,4 0,8 5 3 16 9 ENE 1021,7 50 0,0
14.06.2019 02:00:00 7,8 1,4 3 1 22 12 NNE 1022,1 50 0,0
14.06.2019 01:00:00 7,5 1,6 6 3 14 8 WNW 1022,4 50 0,0
14.06.2019 00:00:00 9,3 1,7 6 4 27 15 E 1022,0 50 0,0
13.06.2019 23:00:00 11,1 1,1 15 8 26 14 E 1021,4 50 0,0
13.06.2019 22:00:00 11,8 -0,7 16 9 29 16 E 1021,2 50 0,0
13.06.2019 21:00:00 12,4 -0,8 18 10 29 16 E 1020,9 50 0,0
13.06.2019 20:00:00 13,1 0,1 21 11 34 19 E 1020,8 50 0,0
13.06.2019 19:00:00 13,8 0,1 18 10 35 19 SE 1020,7 50 0,0
13.06.2019 18:00:00 14,5 -0,4 15 8 - - E 1020,7 50 0,0
13.06.2019 17:00:00 14,4 -0,1 16 9 28 15 SSE 1021,0 50 0,0
13.06.2019 16:00:00 14,2 -0,3 14 7 29 16 SSE 1021,0 50 0,0
13.06.2019 15:00:00 13,5 -0,9 18 10 31 17 ESE 1021,5 50 0,0
13.06.2019 14:00:00 13,1 -2,8 17 9 39 21 SE 1021,8 50 0,0
13.06.2019 13:00:00 13,9 -3,0 20 11 39 21 SE 1021,6 46 0,0
13.06.2019 12:00:00 13,1 -5,0 23 13 42 23 SE 1022,0 49 0,0
13.06.2019 11:00:00 12,9 -4,7 26 14 41 22 SE 1022,0 50 0,0
13.06.2019 10:00:00 12,5 -3,3 23 13 46 25 SE 1021,9 50 0,0
13.06.2019 09:00:00 12,1 -1,4 23 12 43 23 ESE 1022,1 50 0,0
13.06.2019 08:00:00 11,7 -0,2 16 9 30 16 SE 1022,5 49 0,0
13.06.2019 07:00:00 9,3 1,0 5 3 17 9 WSW 1023,1 50 0,0
13.06.2019 06:00:00 8,3 1,4 8 5 13 7 W 1023,5 50 0,0
13.06.2019 05:00:00 8,0 1,4 4 2 16 8 S 1023,7 50 0,0
13.06.2019 04:00:00 8,6 1,0 4 2 14 8 W 1023,8 50 0,0
13.06.2019 03:00:00 6,8 1,1 4 2 8 4 NNW 1024,2 50 0,0
13.06.2019 02:00:00 8,7 1,6 4 2 10 6 SW 1023,6 50 0,0
13.06.2019 01:00:00 8,8 1,2 2 1 10 5 ENE 1023,7 50 0,0
13.06.2019 00:00:00 8,6 1,5 3 2 12 7 W 1023,9 50 0,0
12.06.2019 23:00:00 10,8 1,3 3 2 11 6 NE 1023,1 50 0,0
12.06.2019 22:00:00 11,3 1,2 3 1 9 5 NE 1023,3 50 0,0
12.06.2019 21:00:00 12,2 -0,3 8 4 15 8 SSE 1023,0 50 0,0
12.06.2019 20:00:00 13,2 -0,5 6 3 11 6 SSE 1023,0 50 0,0
12.06.2019 19:00:00 13,4 -0,6 8 4 14 8 SSE 1023,2 50 0,0
12.06.2019 18:00:00 13,5 -0,5 4 2 13 7 SSW 1023,5 49 0,0
12.06.2019 17:00:00 13,1 -0,5 6 3 16 9 WSW 1024,1 50 0,0
12.06.2019 16:00:00 13,1 -0,2 7 4 15 8 SSW 1024,6 50 0,0
12.06.2019 15:00:00 12,6 0,0 5 3 18 10 SSW 1025,6 50 0,0
12.06.2019 14:00:00 12,1 -0,1 9 5 19 10 S 1025,8 50 0,0
12.06.2019 13:00:00 11,1 -0,4 5 3 13 7 S 1026,4 50 0,0
12.06.2019 12:00:00 11,1 -1,3 6 4 - - SSE 1027,1 50 0,0
12.06.2019 11:00:00 10,4 -1,3 6 3 13 7 S 1027,6 45 0,0
12.06.2019 10:00:00 8,2 -1,9 6 4 13 7 S 1028,5 50 0,0
12.06.2019 09:00:00 7,6 -1,6 5 3 10 5 S 1028,9 50 0,0
12.06.2019 08:00:00 6,3 -2,1 5 3 8 5 SW 1029,5 48 0,0
12.06.2019 07:00:00 5,9 -2,0 3 1 6 3 SSW 1029,8 50 0,0
12.06.2019 06:00:00 5,1 -2,0 0 0 7 4 N 1030,1 50 0,0
12.06.2019 05:00:00 3,9 -1,9 3 2 15 8 NE 1030,8 50 0,0
12.06.2019 04:00:00 2,6 -2,5 9 5 18 10 NNE 1031,4 50 0,0
12.06.2019 03:00:00 2,7 -2,6 13 7 19 10 N 1031,7 50 0,0
12.06.2019 02:00:00 2,2 -2,7 14 7 19 11 N 1032,0 50 0,0
12.06.2019 01:00:00 2,6 -2,7 13 7 20 11 N 1031,9 50 0,0
12.06.2019 00:00:00 3,5 -2,5 12 6 20 11 N 1031,7 50 0,0
11.06.2019 23:00:00 3,6 -2,4 13 7 19 11 N 1031,6 50 0,0
11.06.2019 22:00:00 5,0 -3,5 10 6 13 7 N 1031,4 50 0,0
11.06.2019 21:00:00 6,6 -3,6 9 5 16 9 N 1030,9 50 0,0
11.06.2019 20:00:00 7,1 -3,7 11 6 18 10 N 1030,6 50 0,0
11.06.2019 19:00:00 8,0 -6,2 10 5 18 10 N 1030,2 50 0,0
11.06.2019 18:00:00 8,2 -4,9 10 5 21 12 N 1029,9 50 0,0
11.06.2019 17:00:00 8,3 -4,2 8 4 22 12 N 1029,7 50 0,0
11.06.2019 16:00:00 7,6 -4,2 16 8 26 14 N 1029,6 50 0,0
11.06.2019 15:00:00 7,2 -3,4 8 4 17 9 NE 1029,5 50 0,0
11.06.2019 14:00:00 7,4 -2,1 5 3 15 8 S 1029,3 49 0,0
11.06.2019 13:00:00 6,2 -1,2 10 5 16 9 S 1029,6 50 0,0
11.06.2019 12:00:00 6,0 -1,0 8 5 14 7 S 1029,3 50 0,0
11.06.2019 11:00:00 4,3 -1,1 8 4 22 12 SSE 1029,3 50 0,0
11.06.2019 10:00:00 3,8 -0,2 8 5 20 11 SSE 1028,8 50 0,0
11.06.2019 09:00:00 3,7 -0,1 10 6 22 12 SE 1027,9 50 0,0
11.06.2019 08:00:00 2,9 0,5 6 4 16 9 SE 1027,5 50 0,0
11.06.2019 07:00:00 3,7 -1,7 4 2 15 8 NE 1026,5 50 0,0
11.06.2019 06:00:00 2,9 -0,7 8 4 16 9 NE 1025,9 50 0,0
11.06.2019 05:00:00 2,6 -0,7 7 4 15 8 NE 1025,3 50 0,0
11.06.2019 04:00:00 2,6 -0,3 5 3 14 8 NNE 1024,9 50 0,0
11.06.2019 03:00:00 2,6 -0,3 7 4 14 7 N 1024,1 50 0,0
11.06.2019 02:00:00 3,0 -0,1 5 3 12 6 N 1023,5 50 0,0
11.06.2019 01:00:00 3,3 -0,2 4 2 11 6 NNW 1022,7 50 0,0
11.06.2019 00:00:00 3,8 0,1 5 3 14 7 N 1021,7 50 0,0
10.06.2019 23:00:00 4,5 0,3 3 2 14 7 SSW 1020,5 50 0,0
10.06.2019 22:00:00 4,7 0,8 8 4 22 12 WNW 1019,5 50 0,0
10.06.2019 21:00:00 5,5 2,0 10 5 24 13 SW 1018,2 50 0,0
10.06.2019 20:00:00 5,9 1,2 10 5 29 16 WNW 1017,0 50 0,0
10.06.2019 19:00:00 5,5 2,5 15 8 31 17 WNW 1016,5 50 0,0
10.06.2019 18:00:00 5,3 2,5 14 7 27 15 W 1015,3 34 0,0
10.06.2019 17:00:00 4,9 3,1 10 5 26 14 WNW 1014,6 13 0,0
10.06.2019 16:00:00 5,2 2,5 16 9 24 13 WNW 1013,4 50 0,0
10.06.2019 15:00:00 5,4 3,2 13 7 29 15 WNW 1012,2 16 0,0
10.06.2019 14:00:00 4,8 3,3 13 7 26 14 WNW 1011,5 12 0,0
10.06.2019 13:00:00 4,9 3,9 6 4 19 11 W 1010,3 16 0,0
10.06.2019 12:00:00 5,1 3,3 12 6 20 11 WNW 1009,1 50 0,0
10.06.2019 11:00:00 5,2 3,9 9 5 23 12 NW 1007,7 15 0,0
10.06.2019 10:00:00 5,2 4,3 10 5 18 10 NW 1006,7 13 0,0
10.06.2019 09:00:00 6,4 5,7 8 5 17 9 W 1005,2 10 0,2
10.06.2019 08:00:00 6,9 6,8 4 2 16 9 SSW 1004,4 11 0,6
10.06.2019 07:00:00 7,1 7,0 4 2 12 7 W 1003,9 9 1,5
10.06.2019 06:00:00 7,6 7,3 3 2 11 6 W 1003,3 9 1,1
10.06.2019 05:00:00 7,2 6,9 5 3 13 7 SSE 1003,2 12 2,3
10.06.2019 04:00:00 7,3 7,2 5 3 12 6 SSE 1003,6 6 1,8
10.06.2019 03:00:00 7,5 7,4 3 2 8 4 S 1004,3 6 1,5
10.06.2019 02:00:00 7,6 7,5 5 3 8 4 SE 1004,4 19 0,8

tt = Température de l'air
td = dewpoint
ff = Vitesse du vent
fx = gusts
dd = Direction du vent
ppp = reduced air pressure
vv = visibility
rr = Quantités de précipitations

stations d'obs. à proximité